Overview Statistics Trail Chart Weather Telemetry Raw packets
 

This is the latest recevied weather packets stored in our database for station/object WD7OO. If no packets are shown the sender has not sent any weather packets the latest 10 day(s).

<< 9 10 11 12 13 14 15 >>
Time Temp. Humidity Pressure Rain* Wind** Luminosity Snow
1788563780 28.89° C 84% 1014 hPa 0 mm - 32 W/m² -
1788563475 29.44° C 83% 1013.8 hPa 0 mm - 31 W/m² -
1788563175 29.44° C 82% 1013.9 hPa 0 mm - 32 W/m² -
1788562870 30° C 80% 1013.6 hPa 0 mm - 36 W/m² -
1788562568 30.56° C 77% 1013.5 hPa 0 mm - 45 W/m² -
1788562263 30.56° C 78% 1013.8 hPa 0 mm - 54 W/m² -
1788561958 30.56° C 78% 1013.7 hPa 0 mm - 61 W/m² -
1788561652 30.56° C 76% 1013.7 hPa 0 mm - 66 W/m² -
1788561351 31.11° C 75% 1013.4 hPa 0 mm - 71 W/m² -
1788561047 31.11° C 75% 1013.3 hPa 0 mm - 75 W/m² -
1788560743 31.11° C 74% 1013.4 hPa 0 mm - 76 W/m² -
1788560438 31.11° C 75% 1013.4 hPa 0 mm - 127 W/m² -
1788560133 31.11° C 73% 1013.4 hPa 0 mm - 54 W/m² -
1788559827 31.67° C 72% 1013.3 hPa 0 mm - 74 W/m² -
1788559527 31.67° C 71% 1013.5 hPa 0 mm - 197 W/m² -
1788559223 32.22° C 70% 1013.7 hPa 0 mm - 202 W/m² -
1788558922 32.22° C 70% 1013.3 hPa 0 mm - 229 W/m² -
1788558618 32.22° C 68% 1013.3 hPa 0 mm - 243 W/m² -
1788558314 31.67° C 69% 1013.2 hPa 0 mm - 253 W/m² -
1788558009 31.67° C 70% 1013.2 hPa 0 mm - 253 W/m² -
1788557707 31.67° C 68% 1013.3 hPa 0 mm - 283 W/m² -
1788557404 32.22° C 68% 1013.4 hPa 0 mm - 320 W/m² -
1788557102 32.22° C 67% 1013.3 hPa 0 mm - 305 W/m² -
1788556798 32.22° C 68% 1013.3 hPa 0 mm - 337 W/m² -
1788556492 32.22° C 67% 1013.3 hPa 0 mm - 358 W/m² -

* Rain latest hour (hover to see other rain measurements)
** Current wind speed in m/s (hover to see current wind gust speed)